Regional Weather Roundup
Issued by NWS

Home | Current Version | Previous Version | Graphics & Text | Print | Product List | Glossary On
Versions: 1 2 3 4 5 6 7 8 9 10 11 12 13 14 15 16 17 18 19 20 21 22 23 24 25 26 27 28 29 30 31 32 33 34 35 36 37 38 39 40 41 42 43 44 45 46 47 48 49 50
028
ASUS43 KMPX 231710
RWRMN
WEATHER ROUNDUP FOR MINNESOTA
NATIONAL WEATHER SERVICE TWIN CITIES/CHANHASSEN MN
1200 PM CDT MON APR 23 2018


NOTE: "FAIR" INDICATES FEW OR NO CLOUDS BELOW 12,000 FEET WITH NO
SIGNIFICANT WEATHER AND/OR OBSTRUCTIONS TO VISIBILITY. N/A MEANS
CURRENT SKY AND/OR WEATHER CONDITIONS ARE NOT AVAILABLE.

MNZ060>063-068>070-231800-
   Twin Cities Metro

CITY           SKY/WX    TMP DP  RH WIND       PRES   REMARKS
TWIN CITIES    FAIR      64  33  31 SW7       30.23S
ST PAUL        FAIR      65  34  31 NE3       30.23F
CRYSTAL        FAIR      63  31  30 SW8       30.22F
BLAINE         SUNNY     66  32  28 SW6       30.22F
LAKEVILLE      FAIR      63  36  36 SW5       30.22F
EDEN PRAIRIE   FAIR      63  35  35 SW7       30.22F
SOUTH ST PAUL  FAIR      64  33  31 S3        30.22F
LAKE ELMO      FAIR      61  34  36 CALM      30.24S
$$
MNZ001>005-007-008-013>017-022>024-027-028-231800-
   Northwest Minnesota

CITY           SKY/WX    TMP DP  RH WIND       PRES   REMARKS
BEMIDJI        FAIR      62  38  41 W8        30.17S
HALLOCK        FAIR      57  36  44 N12G18    30.19S
ROSEAU         FAIR      57  39  51 W9        30.17S
WARROAD        FAIR      57  36  44 W14G21    30.16S
THIEF RVR FALL FAIR      57  38  48 NW9       30.20R
CROOKSTON      FAIR      57  39  51 N12       30.21R
FOSSTON        FAIR      57  36  44 CALM      30.19F
DETROIT LAKES  FAIR      59  37  44 W6        30.20S
MOORHEAD       FAIR      61  43  51 SW7       30.20S
PARK RAPIDS    FAIR      63  38  39 W10       30.18S
MAHNOMEN       FAIR      59  41  51 NW3       30.18S
$$
MNZ006-009>011-018-025>026-231800-
   North Central Minnesota

CITY           SKY/WX    TMP DP  RH WIND       PRES   REMARKS
BAUDETTE       FAIR      57  36  45 NW9       30.15S
FLAG ISLAND    FAIR      48  30  49 W16       30.13S
INTL FALLS     FAIR      61  34  36 NW12      30.14R
WASKISH        CLOUDY    57  39  51 SW8       30.17S
BIG FORK       FAIR      63  39  42 SW7       30.16S
LONGVILLE      FAIR      63  36  36 SW10      30.18S
GRAND RAPIDS   FAIR      60  36  40 SW8       30.19F
CRANE LAKE     FAIR      57  36  44 CALM      30.16S
ORR            FAIR      59  34  38 SW6       30.13S
COOK           FAIR      61  37  41 W9        30.15F
WALKER         FAIR      61  37  39 SW6G17    30.17S
$$
MNZ012-019>021-037-231800-
   Northeast Minnesota

CITY           SKY/WX    TMP DP  RH WIND       PRES   REMARKS
DULUTH         FAIR      62  38  40 SW8       30.18F
ELY            FAIR      61  34  36 SW10      30.14F
HIBBING        FAIR      60  35  39 W12       30.16F
EVELETH        FAIR      62  36  38 W13       30.18S
DULUTH HARBOR  FAIR      61  36  39 SW14      30.20S
TWO HARBORS    FAIR      66  43  42 S9        30.16F
SILVER BAY     FAIR      63  37  39 S12       30.15F
GRAND MARAIS     N/A     39  32  76 SW8       30.18F
G MARAIS ARPRT FAIR      57  28  33 S9        30.16S
$$
MNZ029>031-032-039>041-046>048-054>057-064-231800-
   West Central Minnesota

CITY           SKY/WX    TMP DP  RH WIND       PRES   REMARKS
FERGUS FALLS   FAIR      61  41  48 SW5       30.18S
WHEATON        SUNNY     63  37  39 NW3       30.22S
MORRIS         SUNNY     63  39  42 SW3       30.20S
ALEXANDRIA     FAIR      64  38  38 VRB7      30.22S
ELBOW LAKE     FAIR      60  41  50 CALM      30.21S
WADENA         FAIR      61  39  44 W6        30.19F
GLENWOOD       FAIR      63  39  42 SW6       30.22S
APPLETON       SUNNY     63  39  42 CALM      30.21S
BENSON         SUNNY     63  43  48 W5        30.23S
ORTONVILLE     SUNNY     63  39  42 CALM      30.20S
MADISON        SUNNY     63  45  51 CALM      30.21S HAZE
WILLMAR        FAIR      61  43  51 SW3       30.24F
$$
MNZ033>034-036-042>043-049>051-058-059-231800-
   Central Minnesota

CITY           SKY/WX    TMP DP  RH WIND       PRES   REMARKS
ST CLOUD       FAIR      61  40  45 VRB5      30.22F
SAUK CENTRE    FAIR      61  39  45 SW6       30.21F
PAYNESVILLE    FAIR      62  40  43 SW3       30.22F
AITKIN         FAIR      61  37  41 W8        30.18F
PINE RIVER     FAIR      61  37  41 SW9       30.21S
BRAINERD       FAIR      64  36  35 W9        30.20F
STAPLES        FAIR      64  36  34 W7        30.20S
LONG PRAIRIE   FAIR      61  37  41 SW6       30.21F
LITTLE FALLS   FAIR      61  30  31 S7        30.22S
LITCHFIELD     FAIR      64  39  39 CALM      30.23S
BUFFALO        FAIR      60  36  39 SW3       30.24S
MAPLE LAKE     FAIR      62  39  42 CALM      30.23F
HUTCHINSON     FAIR      61  44  53 S6        30.24S
$$
MNZ037-044-045-052-053-231800-
   East Central Minnesota

CITY           SKY/WX    TMP DP  RH WIND       PRES   REMARKS
PRINCETON      FAIR      64  34  32 W3        30.22F
MORA           FAIR      59  36  41 SW6       30.24S
CAMBRIDGE      FAIR      64  41  42 SW8       30.22F
RUSH CITY      FAIR      62  32  32 SW7       30.23S
MOOSE LAKE     FAIR      63  36  36 SW10      30.19F
HINCKLEY       FAIR      61  39  44 W9        30.22F
CLOQUET        FAIR      63  28  27 SW10      30.19F
MCGREGOR       FAIR      63  37  39 SW7       30.20F
$$
MNZ071>073-080-081-089-090-097-098-231800-
   Southwest Minnesota

CITY           SKY/WX    TMP DP  RH WIND       PRES   REMARKS
MONTEVIDEO     SUNNY     64  39  39 CALM      30.22S
GRANITE FALLS  SUNNY     61  44  53 S5        30.23S
CANBY          SUNNY     62  38  40 S3        30.22S
MARSHALL       SUNNY     60  42  51 VRB3      30.22S
REDWOOD FALLS  SUNNY     59  43  55 SW7       30.22S
OLIVIA         SUNNY     61  43  51 SW6       30.22S
PIPESTONE      SUNNY    N/A N/A N/A S5        30.22S
WINDOM         SUNNY     59  32  36 S7        30.23S
WORTHINGTON    SUNNY     60  35  39 CALM      30.23S
JACKSON        SUNNY     57  36  44 CALM      30.23F
TRACY          SUNNY     58  41  54 SW6       30.23R
SLAYTON        SUNNY     58  42  54 S5        30.23S
$$
MNZ065>067-074>077-082>085-091>093-231800-
   South Central Minnesota

CITY           SKY/WX    TMP DP  RH WIND       PRES   REMARKS
MANKATO        FAIR      61  37  41 W5        30.24S
NEW ULM        SUNNY     59  41  51 CALM      30.23S
ST JAMES       SUNNY     54  43  66 SE3       30.25S
FAIRMONT       SUNNY     52  38  58 S3        30.25S
GLENCOE        FAIR      59  42  53 CALM      30.23F
OWATONNA       FAIR      61  36  39 CALM      30.23F
WASECA         FAIR      59  36  41 W5        30.24F
ALBERT LEA     FAIR      59  30  33 CALM      30.23F
$$
MNZ078>079-086>088-094>096-231800-
   Southeast Minnesota

CITY           SKY/WX    TMP DP  RH WIND       PRES   REMARKS
ROCHESTER      FAIR      61  35  37 CALM      30.24F
RED WING       FAIR      63  27  25 S3        30.22F
STANTON        FAIR      63  36  37 CALM      30.22S
DODGE CENTER   FAIR      59  34  38 CALM      30.23F
WINONA         FAIR      61  28  29 CALM      30.21F
AUSTIN         FAIR      59  36  41 CALM      30.22F
PRESTON        FAIR      58  30  34 CALM      30.23F
$$
ABBREVIATIONS USED IN REMARKS
   TC - TEMPERATURES IN CELSIUS
  WCI - WIND CHILL INDEX
   HX - HEAT INDEX
  VSB - VISIBILITY
$$




USA.gov is the U.S. government's official web portal to all federal, state and local government web resources and services.